Simultaneous Nadir Overpasses (SNOs) Predictions

Prediction of SNOs between GOES-16 and LANDSAT-8 Satellite Orbit:

Table of predicted SNOs for the next 14.0 days since TLE Epoch: 8/31/2024
Index Date Time (GOES-16) GOES-16 Lat,Lon LANDSAT-8 Lat,Lon Distance(km) Time Diff (sec)
1 08/31/2024 15:18:30 -0.05, -75.21 0.31, -76.89 191.96 80
2 09/02/2024 15:09:01 -0.05, -75.22 -0.33, -73.95 145.00 80
3 09/03/2024 03:27:46 0.05, -75.21 -0.76, -79.14 446.18 80
4 09/04/2024 14:56:51 -0.05, -75.24 -0.96, -70.99 483.13 80
5 09/05/2024 03:15:35 0.05, -75.23 -0.17, -76.18 107.78 80
6 09/07/2024 03:06:04 0.05, -75.26 0.46, -73.22 231.55 80
7 09/07/2024 15:24:40 -0.05, -75.28 0.61, -78.38 352.70 80
8 09/09/2024 15:12:28 -0.04, -75.31 -0.03, -75.42 12.68 80
9 09/11/2024 15:02:55 -0.04, -75.34 -0.65, -72.45 327.86 80
10 09/12/2024 03:24:19 0.04, -75.33 -0.43, -77.64 262.45 80
